Regional Weather Roundup
Issued by NWS Jackson, KY

Home | Current Version | Previous Version | Text Only | Print | Product List | Glossary On
Versions: 1 2 3 4 5 6 7 8 9 10 11 12 13 14 15 16 17 18 19 20 21 22 23 24 25 26 27 28 29 30 31 32 33 34 35 36 37 38 39 40 41 42 43 44 45 46 47 48 49 50
000
ASUS43 KJKL 260010
RWRJKL

EAST KENTUCKY HOURLY WEATHER ROUNDUP
NATIONAL WEATHER SERVICE JACKSON KY
800 PM EDT MON MAY 25 2015

NOTE: "FAIR" INDICATES FEW OR NO CLOUDS BELOW 12,000 FEET WITH
NO SIGNIFICANT WEATHER AND/OR OBSTRUCTIONS TO VISIBILITY.

* THESE REPORTS ARE NOT UNDER NWS QUALITY CONTROL AND MAY NOT
  REPORT WEATHER SUCH AS PRECIPITATION AND FOG.

KYZ079-080-083-085-087-088-110-112-115-119-120-260100
...EASTERN KENTUCKY...

CITY           SKY/WX    TMP DP  RH WIND       PRES   REMARKS
JACKSON        PTCLDY    77  62  59 CALM      30.16F
6HR MIN TEMP:  77; 6HR MAX TEMP:  84;

LONDON         MOCLDY    80  59  48 S6        30.15F
6HR MIN TEMP:  79; 6HR MAX TEMP:  84; 6HR PCP: TRACE;

SOMERSET*      CLOUDY    70  64  83 CALM      30.16F
MONTICELLO*    CLOUDY    70  65  84 CALM      30.19S
6HR MIN TEMP:  70; 6HR MAX TEMP:  81; 6HR PCP:  0.01;

MIDDLESBORO*   PTCLDY    79  62  56 S3        30.18R
6HR MIN TEMP:  79; 6HR MAX TEMP:  84;

HARLAN APT*    CLOUDY    79  55  44 CALM      30.19S
HAZARD APT*    CLEAR     79  59  50 S8        30.16F
BLACK MTN*       N/A     66  59  77 S2          N/A
PIKEVILLE APT* PTCLDY    79  63  57 CALM      30.18S
BIG SANDY*     MOCLDY    80  65  59 CALM      30.16F
6HR MIN TEMP:  80; 6HR MAX TEMP:  85;

MOREHEAD APT*  MOCLDY    75  64  69 CALM      30.16S
$$

KYZ035-036-041-042-044-050-067-078-099-260100
...CENTRAL KENTUCKY...

CITY           SKY/WX    TMP DP  RH WIND       PRES   REMARKS
MT STERLING*   MOCLDY    77  64  65 S5        30.14F
FLEMING/MASON* CLEAR     73  64  73 CALM      30.13F
DANVILLE*      CLOUDY    70  66  88 SW3       30.15F
RICHMOND*      CLOUDY    72  64  78 SW7       30.15R
LEXINGTON      LGT RAIN  69  66  90 SW5       30.13S
6HR MIN TEMP:  69; 6HR MAX TEMP:  78; 6HR PCP:  0.06;

FRANKFORT      CLOUDY    73  64  73 S10       30.10F
6HR MIN TEMP:  72; 6HR MAX TEMP:  77; 6HR PCP: TRACE;

$$

KYZ091>093-OHZ055-061-077-WVZ005-015-034-035-042-260100
...SOUTHERN OHIO/WEST VIRGINIA...

CITY           SKY/WX    TMP DP  RH WIND       PRES   REMARKS
COVINGTON      CLOUDY    72  64  76 S5        30.10F
COLUMBUS       MOCLDY    79  59  50 SW16G24   30.09R
DAYTON         MOCLDY    75  63  66 S16       30.09F
WILMINGTON     MOCLDY    75  61  61 SW12      30.11R
HUNTINGTON     MOCLDY    78  63  59 CALM      30.13S
CHARLESTON     PTCLDY    82  60  47 W6        30.13F
PINEVILLE*     MOCLDY    72  64  74 MISG      30.24R
BECKLEY        CLEAR     74  57  55 SE12      30.23S
BLUEFIELD      PTCLDY    74  56  53 CALM      30.27S
$$

VAZ002-007-008-TNZ017-027-036-066-071-260100
...SOUTHWEST VIRGINIA/EAST TENNESSEE...

CITY           SKY/WX    TMP DP  RH WIND       PRES   REMARKS
WISE*          CLOUDY    77  55  47 SW5       30.27R
JONESVILLE*    CLOUDY    81  59  47 CALM      30.21S
ABINGDON*      MOCLDY    78  57  48 S3        30.23S
BRISTOL        MOCLDY    83  57  41 W3        30.20R
KNOXVILLE      CLOUDY    80  60  50 SW7       30.16F
OAK RIDGE      CLOUDY    80  63  55 W8        30.19R
CROSSVILLE     CLOUDY    67  64  90 S5        30.21S
NASHVILLE      CLOUDY    71  67  87 SE8       30.11F
$$

...KEY TO REMARKS...
VSB - VISIBILITY IN MILES
WCI - WIND CHILL INDEX
HX  - HEAT INDEX

$$



USA.gov is the U.S. government's official web portal to all federal, state and local government web resources and services.